Location: *
(43.9905°S, 176.4941°W)
Time: 10:08:03
(UTC+00:00)

Cosmos 1898 Rocket - Pass Details

Date: 08 December 2019
Orbit: 753 x 784 km, 74.0° (Epoch: 20 January)

Event Time Altitude Azimuth Distance (km) Brightness Sun altitude
Rises 10:28:39 0° 205° (SSW) 3,247 8.3 -21.4°
Reaches altitude 10° 10:31:04 10° 208° (SSW) 2,315 7.1 -21.6°
Maximum altitude 10:36:13 59° 286° (WNW) 883 3.7 -21.8°
Enters shadow 10:37:32 45° 338° (NNW) 1,040 3.8 -21.9°
